Theta_e
286 286 286 285 285 285 285 284 284 284 284 284 284 283 283 284 283 283 283 283 283 283
286 286 286 286 286 285 285 284 283 284 283 283 283 283 282 282 282 282 282 282 283 283
287 286 286 286 285 285 285 284 283 283 283 283 283 282 282 282 282 281 281 281 281 282
287 287 286 286 286 286 285 284 283 283 282 282 281 281 281 281 280 279 280 281 280 280
287 287 286 285 286 286 285 284 283 282 281 281 281 281 280 279 279 279 278 279 279 279
286 286 285 286 286 286 285 284 283 282 281 280 280 279 279 278 278 278 278 279 278 278
286 285 285 285 285 285 284 283 282 281 281 280 279 278 278 278 278 278 278 279 278 278
286 285 285 285 285 284 284 283 282 281 279 279 278 278 278 278 278 278 278 278 278 278
284 284 284 284 283 283 283 282 282 281 279 278 278 279 279 279 277 277 277 277 277 277
283 283 283 283 283 282 282 282 281 281 280 279 279 280 280 279 277 277 276 276 276 275
282 282 282 281 281 281 282 281 281 280 279 279 278 280 279 278 277 275 275 275 274 273
279 278 279 279 279 280 281 281 281 281 279 277 277 279 279 278 275 275 274 275 274 273
275 275 275 276 276 278 279 279 280 280 279 276 275 278 278 277 275 273 273 274 274 276
273 273 274 275 276 276 276 277 277 277 278 276 273 272 276 277 274 273 273 273 274 275
Wind_Speed
5 3 2 2 1 0 1 2 3 4 5 6 6 7 7 5 6 7 6 8 6 6
5 4 3 3 3 2 1 0 1 3 4 5 5 6 7 5 6 7 7 7 7 6
7 6 5 4 5 4 3 3 2 3 3 4 5 6 7 6 6 7 6 5 7 7
7 6 6 6 5 6 5 4 4 3 3 4 5 5 6 7 7 8 8 7 7 8
7 6 6 6 6 5 6 5 5 4 4 4 4 5 5 7 7 8 9 8 8 8
8 7 7 6 5 6 6 5 5 5 5 5 5 5 5 6 7 8 9 9 9 9
8 7 6 5 6 6 6 6 6 6 5 5 5 6 6 6 7 8 8 9 9 9
6 6 6 5 5 6 7 7 7 6 7 6 6 6 6 6 7 8 9 9 9 9
6 6 5 5 6 7 7 8 8 8 8 8 7 12 13 10 7 9 9 8 8 9
5 5 4 5 6 7 7 8 9 9 9 10 9 15 15 14 7 8 8 8 8 9
1 2 3 3 5 6 7 8 8 9 9 9 8 16 16 16 9 8 10 9 8 9
5 4 4 5 5 6 7 8 9 9 9 10 10 16 17 13 7 9 10 8 8 9
5 6 6 6 7 7 7 8 7 9 9 8 9 14 16 14 6 8 8 8 9 15
7 8 8 8 7 7 7 7 8 9 8 8 7 9 17 18 8 8 8 8 8 7
Wind_Direction
197 206 209 204 205 150 29 40 24 11 7 9 5 2 359 355 356 352 349 348 349 332
202 216 232 232 235 238 232 131 352 350 352 358 357 357 351 353 350 345 341 336 339 327
203 214 229 243 247 246 238 225 258 306 329 338 343 348 345 342 342 336 333 329 328 327
206 208 219 233 244 250 243 232 242 267 295 311 323 332 331 329 330 323 322 319 320 316
208 210 218 232 238 232 250 239 238 247 262 279 293 309 315 317 314 313 311 312 311 310
210 213 225 231 234 230 222 235 239 231 249 256 269 281 291 295 296 298 299 300 303 305
208 209 221 230 231 228 221 221 225 229 234 238 249 257 266 278 286 289 290 291 290 295
200 205 220 226 232 234 225 221 223 220 226 233 232 237 242 255 271 281 286 286 287 286
192 206 214 228 233 234 232 232 227 222 226 226 231 240 244 249 262 274 278 281 281 285
201 212 222 239 243 240 243 243 238 235 228 231 230 237 240 246 253 262 266 268 274 279
189 268 290 260 257 263 258 251 244 239 233 232 232 238 239 243 248 255 258 256 258 266
8 343 309 287 278 264 260 258 250 244 240 231 239 238 236 238 245 254 257 254 250 255
344 315 301 291 283 278 271 271 267 262 245 236 242 241 237 235 239 253 256 252 251 248
334 318 300 297 293 290 285 280 270 265 255 244 221 240 242 239 237 245 256 255 254 249